RH
34 42 46 52 56 56 57 55 50 48 56 48 37 61 76 83 84 88 97 97 97 81 86 85 89 88 95 97 98 97 97 91 87 87 73 67 68 68 67 67 75 81 82 82 80 82 75 62 62 62 63 60 59 56
37 44 48 49 53 55 56 61 53 45 56 53 37 62 82 86 86 87 93 97 98 91 82 88 84 90 96 98 98 96 97 87 78 77 66 65 72 73 66 71 67 74 67 71 69 69 62 59 61 61 64 64 62 62
38 41 44 50 50 54 47 52 42 48 55 46 41 66 82 83 86 88 90 98 96 89 89 83 80 94 97 96 96 97 95 95 86 75 69 70 72 72 74 66 62 66 67 69 69 69 70 68 65 66 66 67 67 63
32 35 37 39 43 50 44 55 51 52 41 38 48 72 79 82 87 91 93 94 91 89 87 81 91 98 96 97 98 98 98 93 97 92 84 82 88 84 79 70 63 59 61 61 71 73 70 70 72 72 72 73 69 68
30 30 27 26 27 33 41 38 30 25 35 52 59 71 77 82 86 88 92 92 88 95 90 85 94 97 88 98 98 97 97 97 89 94 96 96 94 85 80 72 62 59 62 75 77 76 75 72 70 71 74 73 74 71
27 23 20 22 24 24 20 20 22 26 41 58 63 69 74 84 91 94 91 90 92 91 88 92 96 97 95 98 97 97 98 98 98 92 94 91 89 87 84 80 71 73 77 77 79 82 80 76 74 74 75 75 75 72
24 18 15 18 26 30 37 45 50 46 45 52 59 70 77 86 90 89 88 84 88 88 88 94 95 91 92 95 97 98 98 98 98 98 97 94 92 87 84 84 73 72 73 74 80 79 82 80 77 76 77 78 78 74
20 17 13 12 30 48 58 62 59 52 47 50 58 65 82 90 93 94 93 85 88 83 82 96 97 94 87 97 98 96 98 97 97 98 95 94 91 88 88 76 75 74 79 82 81 78 77 77 77 78 79 78 77 72
20 17 12 9 26 44 60 63 61 52 46 49 57 68 89 93 95 95 96 90 90 90 80 87 96 96 83 97 96 96 98 97 95 97 96 95 94 90 79 78 76 72 74 79 76 74 75 75 75 75 71 68 65 67
20 17 12 8 17 35 60 62 58 50 43 49 59 87 93 94 96 98 97 92 92 88 82 82 94 96 86 90 96 93 91 92 91 91 88 89 87 75 73 68 69 68 67 70 69 68 69 75 68 67 65 62 61 60
21 17 13 9 13 30 56 60 54 49 53 66 86 94 96 99 99 96 98 90 92 90 80 76 89 96 92 93 90 93 93 89 86 83 84 80 77 66 66 66 68 68 68 66 65 65 64 66 64 62 61 62 61 61
22 19 14 11 10 24 47 56 49 60 72 88 95 96 99 99 97 95 90 88 86 85 79 73 89 92 98 98 94 89 85 83 79 79 77 73 66 65 66 68 69 70 70 71 70 68 66 66 68 70 69 70 69 68
23 20 16 12 8 18 39 50 48 65 84 96 97 99 98 96 96 88 83 81 81 75 73 73 85 92 96 97 97 95 93 91 83 79 74 65 59 57 62 66 67 70 71 70 72 71 72 72 73 73 74 74 72 71
25 21 18 13 7 10 31 48 47 65 95 98 99 98 95 94 87 82 76 76 73 74 76 75 80 87 91 96 97 94 89 82 78 73 65 58 56 57 56 56 59 64 67 68 69 71 72 74 75 77 76 75 76 76
27 22 19 14 7 5 20 49 47 75 95 98 98 98 89 87 87 85 82 81 80 79 77 81 79 77 85 89 87 86 84 78 70 59 51 48 53 56 57 56 56 58 62 65 66 67 69 73 75 73 74 77 74 74
30 24 21 16 11 5 7 49 55 75 97 98 98 93 89 88 90 87 86 84 83 86 86 85 87 84 81 79 79 76 72 66 55 55 51 51 52 51 51 52 54 58 62 65 68 71 76 76 74 75 73 74 68 60
32 28 23 19 13 6 8 32 57 71 95 97 94 88 90 90 91 89 89 89 88 89 90 88 86 82 84 82 73 64 61 54 52 54 53 53 52 52 54 56 58 62 64 65 66 69 71 75 76 72 71 64 59 56
34 31 25 21 16 9 12 26 49 64 77 88 92 87 85 84 93 92 91 90 91 90 91 88 86 87 81 75 71 64 61 60 58 57 57 55 58 62 63 62 65 66 69 70 72 77 76 74 74 70 62 57 54 55
38 34 28 22 19 15 14 26 35 52 64 72 78 86 86 85 87 92 93 93 93 94 92 91 89 84 79 76 75 71 69 65 63 61 60 62 65 67 67 69 70 74 76 74 77 81 75 70 65 61 59 59 56 56
40 35 29 24 22 22 19 25 30 39 48 58 73 79 84 87 91 91 95 97 97 98 98 92 83 79 79 78 76 75 73 70 68 67 66 68 70 73 73 74 75 77 78 78 78 73 70 68 64 63 61 62 64 63
42 37 31 28 28 27 25 23 26 34 40 48 57 70 83 91 95 98 96 98 99 97 96 89 84 82 83 78 76 76 76 73 71 68 68 71 77 80 77 76 79 79 79 76 69 68 66 67 69 69 66 65 67 67
46 40 34 32 33 32 32 27 24 29 32 35 45 59 76 90 98 98 98 98 97 96 95 94 90 88 87 82 79 80 80 78 76 74 76 77 80 82 81 81 81 79 77 72 69 73 73 69 65 64 68 69 70 71
48 42 38 37 35 32 32 25 26 31 33 39 40 49 66 81 97 97 97 97 95 94 94 93 93 93 91 87 85 85 82 82 81 81 83 85 88 87 83 84 84 81 81 82 74 66 64 65 68 72 74 74 74 74
51 46 41 39 37 32 27 28 30 34 36 42 47 49 56 72 89 97 97 97 97 96 95 98 98 97 96 94 92 90 88 86 86 86 86 87 88 87 91 88 90 93 82 71 68 66 69 72 77 79 78 77 74 69
54 48 44 43 38 33 34 35 35 38 43 45 47 48 59 63 81 92 97 96 97 97 97 97 97 97 97 97 96 95 94 93 94 94 92 89 88 89 95 98 89 80 73 66 68 73 79 84 84 81 78 74 70 65
56 48 46 42 40 37 37 37 41 43 46 48 53 55 61 66 69 82 93 97 97 97 97 97 97 97 97 98 98 98 98 97 97 96 96 93 93 95 96 85 79 73 71 73 79 86 87 85 81 78 75 69 64 62
60 54 50 43 39 36 37 41 44 47 51 55 59 60 63 68 73 73 85 95 97 97 97 97 97 97 97 97 97 97 97 98 98 98 98 98 99 95 87 78 72 73 81 90 94 92 83 80 78 74 69 65 63 60
63 54 49 42 39 38 41 44 48 52 56 61 63 66 68 72 74 76 79 89 94 96 97 96 96 97 97 97 97 97 97 97 97 98 98 98 96 91 83 79 81 92 97 97 93 87 85 81 74 68 65 64 62 59
62 51 44 42 40 41 45 47 48 54 58 62 65 67 66 62 66 72 77 82 94 96 97 97 97 97 97 97 97 97 97 98 98 97 97 95 90 87 87 93 97 97 97 94 90 85 81 74 70 68 66 64 62 59
50 46 44 44 42 44 47 49 51 56 61 63 68 69 67 69 68 74 80 83 90 96 97 97 97 97 97 97 97 97 97 97 98 98 96 95 95 96 97 98 97 97 95 89 82 77 73 72 72 69 65 63 60 58
48 49 46 48 48 50 51 54 57 59 62 64 68 69 69 73 77 77 80 83 89 94 97 98 97 97 97 97 97 97 97 97 98 98 98 98 98 98 97 97 96 93 89 85 80 76 74 73 70 65 62 60 59 57
49 51 54 55 56 56 56 61 66 64 62 63 70 72 74 72 75 79 87 89 95 97 97 98 98 98 98 98 98 98 98 98 98 98 98 98 98 97 96 93 89 85 81 78 76 75 73 68 65 64 62 60 56 51
55 57 61 62 61 60 63 68 72 71 65 63 65 69 75 77 80 88 93 98 98 98 98 98 98 98 98 98 98 98 98 98 98 98 98 97 96 93 90 87 84 80 77 76 72 70 68 65 63 62 58 53 48 44